Regional Weather Roundup
Issued by NWS

Home | Current Version | Previous Version | Text Only | Print | Product List | Glossary Off
Versions: 1 2 3 4 5 6 7 8 9 10 11 12 13 14 15 16 17 18 19 20 21 22 23 24 25 26 27 28 29 30 31 32 33 34 35 36 37 38 39 40 41 42 43 44 45 46 47 48 49 50

000
ASUS45 KSLC 210010
RWRUT

UTAH REGIONAL WEATHER ROUNDUP
NATIONAL WEATHER SERVICE SALT LAKE CITY UT
600 PM MDT WED AUG 20 2014

UTZ001>011-023>025-210100-

NORTHERN UTAH

CITY           SKY/WX    TMP DP  RH WIND       PRES   REMARKS
HILL AFB       MOSUNNY   81  50  34 S13       29.94F
LOGAN          SUNNY     81  48  31 S8        29.91R
OGDEN          MOSUNNY   82  48  30 S14       29.91F
PROVO AIRPORT  MOSUNNY   81  52  36 E5        29.96F
SALT LAKE CITY PTSUNNY   79  48  33 S15       29.90F
VERNAL         PTSUNNY   62  53  72 NW7       30.01S
WENDOVER       CLOUDY    81  43  26 S12       29.89F
HEBER CITY     MOSUNNY   79  45  29 W9G16     30.01S
WEST JORDAN    CLOUDY    68  55  64 SE15G23   29.95F

$$

UTZ012>022-026-027-210100-

SOUTHERN UTAH

CITY           SKY/WX    TMP DP  RH WIND       PRES   REMARKS
BRYCE CANYON   PTSUNNY   66  43  43 NW7       30.23S
CEDAR CITY     MOSUNNY   77  44  30 SW15G22   30.08S
MILFORD        PTSUNNY   76  43  30 N13       30.02F
MOAB/CYNLANDS  MOSUNNY   75  47  36 W6        29.97S
PRICE          MOSUNNY   76  42  29 CALM      30.04F
ST GEORGE      MOCLDY    81  52  36 CALM      29.95R

$$

REGIONAL REPORTS     COLORADO/ARIZONA

CITY           SKY/WX    TMP DP  RH WIND       PRES   REMARKS
CRAIG, CO      SUNNY     74  46  36 W10       30.06S
GRAND JUNCTION SUNNY     79  50  36 NW5       29.96S
RIFLE          MOSUNNY   80  46  30 W17       29.99F
MONTROSE       PTSUNNY   77  49  37 S6        30.06R
CORTEZ         SUNNY     80  36  20 NW12      30.09S
PAGE, AZ       CLOUDY    80  40  23 W8        30.03R
GRAND CANYON   PTSUNNY   70  45  40 S16       30.19S
KINGMAN        MOSUNNY   85  49  28 VRB3      29.97F
FLAGSTAFF      MOSUNNY   68  48  48 SW9       30.23S

$$

REGIONAL REPORTS    NEVADA/IDAHO/WYOMING

CITY           SKY/WX    TMP DP  RH WIND       PRES   REMARKS
LAS VEGAS, NV  PTSUNNY   90  49  24 S14G24    29.82S THUNDER
ELY            MOSUNNY   74  44  34 SW24G31   30.06R
ELKO           PTSUNNY   80  33  18 W15G28    29.93R
POCATELLO, ID  PTSUNNY   74  46  36 S16G24    29.90S
BURLEY         CLOUDY    69  50  50 W9G22     29.88F
EVANSTON, WY   MOSUNNY   70  42  36 SW14      30.09S
ROCK SPRINGS   CLOUDY    59  46  62 NW3       30.12R

$$



USA.gov is the U.S. government's official web portal to all federal, state and local government web resources and services.